Change the Weather History Date:

Sunday, January 5, 2014

  Actual Average Record
Temperature  
Mean Temperature 20 °F -  
Max Temperature 25 °F 29 °F 46 °F (2007)
Min Temperature 14 °F 17 °F -1 °F (1988)
Degree Days  
Heating Degree Days 46    
Moisture  
Dew Point 15 °F    
Average Humidity 81    
Maximum Humidity 88    
Minimum Humidity 71    
Precipitation  
Precipitation 0.00 in - - ()
Sea Level Pressure  
Sea Level Pressure 30.00 in    
Wind  
Wind Speed 7 mph (NNE)    
Max Wind Speed 14 mph    
Max Gust Speed 21 mph    
Visibility 8 miles    
Events Snow    
Averages and records for this station are not official NWS values.
T = Trace of Precipitation, MM = Missing Value Source: NWS Daily Summary

Daily Weather History Graph

Daily Weather History Graph

Search for Another Location

Airport or City:

Trip Planner

Search our weather history database for the weather conditions in past years. The results will help you decide how hot, cold, wet, or windy it might be!

Date:

Astronomy

Jan. 05, 2014 Rise Set
Actual Time 8:20 AM EST 5:22 PM EST
Civil Twilight 7:47 AM EST 5:54 PM EST
Nautical Twilight 7:11 AM EST 6:31 PM EST
Astronomical Twilight 6:36 AM EST 7:06 PM EST
Moon 10:50 AM EST (1/5) 11:01 PM EST (1/5)
Length of Visible Light 10h 07m
Length of Day
9h 02m
Waxing Crescent, 24% of the Moon is Illuminated
Jan 5
Waxing Crescent
Jan 7
First Quarter
Jan 15
Full
Jan 24
Last Quarter
Jan 30
New

Hourly Weather History & Observations

Time (EST) Temp. Windchill Dew Point Humidity Pressure Visibility Wind Dir Wind Speed Gust Speed Precip Events Conditions
12:14 AM 25.7 °F 16.4 °F 21.0 °F 82% 30.01 in 10.0 mi North 9.2 mph - N/A   Overcast
12:35 AM 24.4 °F 14.9 °F 19.8 °F 82% 30.02 in 10.0 mi North 9.2 mph - N/A   Overcast
12:54 AM 24.4 °F 16.5 °F 19.9 °F 83% 30.02 in 10.0 mi North 6.9 mph - N/A   Overcast
1:15 AM 24.4 °F 16.5 °F 19.9 °F 83% 30.02 in 10.0 mi NNE 6.9 mph - N/A   Overcast
1:35 AM 24.4 °F 16.5 °F 19.9 °F 83% 30.03 in 10.0 mi North 6.9 mph - N/A   Overcast
1:54 AM 24.4 °F 15.6 °F 19.9 °F 83% 30.04 in 10.0 mi North 8.1 mph - N/A   Overcast
2:15 AM 24.4 °F 17.5 °F 19.9 °F 83% 30.04 in 10.0 mi North 5.8 mph - N/A   Overcast
2:35 AM 24.4 °F 18.6 °F 19.9 °F 83% 30.05 in 10.0 mi NNE 4.6 mph - N/A   Overcast
2:54 AM 24.4 °F 20.1 °F 19.9 °F 83% 30.06 in 10.0 mi NE 3.5 mph - N/A   Overcast
3:15 AM 23.2 °F 17.2 °F 18.7 °F 83% 30.07 in 10.0 mi NNE 4.6 mph - N/A   Overcast
3:35 AM 23.0 °F - 18.5 °F 83% 30.07 in 10.0 mi Calm Calm - N/A   Overcast
3:54 AM 22.8 °F 16.7 °F 18.3 °F 83% 30.07 in 10.0 mi NE 4.6 mph - N/A   Overcast
4:15 AM 22.5 °F 15.1 °F 18.1 °F 83% 30.06 in 10.0 mi NE 5.8 mph - N/A   Overcast
4:35 AM 22.1 °F 17.4 °F 17.6 °F 83% 30.06 in 10.0 mi NNE 3.5 mph - N/A   Overcast
4:55 AM 21.9 °F 15.7 °F 17.4 °F 83% 30.06 in 10.0 mi North 4.6 mph - N/A   Overcast
5:15 AM 21.9 °F 14.5 °F 17.4 °F 83% 30.06 in 10.0 mi NNE 5.8 mph - N/A   Overcast
5:35 AM 21.9 °F 15.7 °F 16.7 °F 80% 30.06 in 10.0 mi NNE 4.6 mph - N/A   Overcast
5:55 AM 21.6 °F 14.0 °F 16.2 °F 80% 30.06 in 10.0 mi NE 5.8 mph - N/A   Overcast
6:15 AM 20.8 °F 14.4 °F 15.6 °F 80% 30.07 in 10.0 mi ENE 4.6 mph - N/A   Overcast
6:35 AM 20.7 °F 11.9 °F 15.8 °F 81% 30.06 in 10.0 mi ENE 6.9 mph - N/A   Overcast
6:55 AM 20.7 °F 14.2 °F 15.6 °F 81% 30.07 in 10.0 mi NE 4.6 mph - N/A   Overcast
7:15 AM 20.7 °F 13.0 °F 15.6 °F 81% 30.07 in 10.0 mi NE 5.8 mph - N/A   Overcast
7:34 AM 20.7 °F 14.2 °F 15.6 °F 81% 30.08 in 10.0 mi NE 4.6 mph - N/A   Overcast
7:55 AM 19.9 °F 13.4 °F 14.9 °F 81% 30.09 in 10.0 mi NNE 4.6 mph - N/A   Overcast
8:15 AM 19.9 °F 12.1 °F 14.9 °F 81% 30.10 in 10.0 mi NE 5.8 mph - N/A   Overcast
8:34 AM 19.8 °F 13.2 °F 14.4 °F 80% 30.09 in 10.0 mi ENE 4.6 mph - N/A   Overcast
8:55 AM 19.4 °F 11.5 °F 14.0 °F 80% 30.08 in 10.0 mi NE 5.8 mph - N/A   Overcast
9:15 AM 19.8 °F 10.8 °F 14.2 °F 79% 30.09 in 10.0 mi NNE 6.9 mph - N/A   Overcast
9:34 AM 19.9 °F 12.1 °F 14.0 °F 78% 30.08 in 10.0 mi NE 5.8 mph - N/A   Overcast
9:55 AM 20.3 °F 11.5 °F 14.5 °F 78% 30.08 in 10.0 mi NNE 6.9 mph - N/A   Overcast
10:15 AM 20.1 °F 12.3 °F 14.0 °F 77% 30.10 in 10.0 mi NE 5.8 mph - N/A   Overcast
10:34 AM 20.3 °F 13.8 °F 14.0 °F 77% 30.10 in 10.0 mi NNE 4.6 mph - N/A   Overcast
10:55 AM 20.7 °F 13.0 °F 14.4 °F 77% 30.10 in 10.0 mi NNE 5.8 mph - N/A   Overcast
11:15 AM 20.7 °F 11.9 °F 14.0 °F 75% 30.09 in 10.0 mi NE 6.9 mph - N/A   Overcast
11:34 AM 20.7 °F 13.0 °F 13.1 °F 73% 30.07 in 10.0 mi NE 5.8 mph - N/A   Overcast
11:55 AM 20.7 °F 11.9 °F 12.9 °F 72% 30.06 in 10.0 mi NNE 6.9 mph - N/A   Overcast
12:15 PM 20.7 °F 11.9 °F 13.3 °F 73% 30.05 in 10.0 mi NNE 6.9 mph - N/A   Overcast
12:35 PM 20.7 °F 11.9 °F 13.1 °F 73% 30.05 in 10.0 mi NNE 6.9 mph - N/A   Overcast
12:55 PM 20.7 °F 10.2 °F 13.1 °F 73% 30.02 in 10.0 mi NNE 9.2 mph - N/A   Overcast
1:15 PM 20.7 °F 13.0 °F 13.1 °F 73% 30.01 in 10.0 mi NE 5.8 mph - N/A   Overcast
1:35 PM 20.7 °F 11.0 °F 12.7 °F 71% 30.02 in 10.0 mi NNE 8.1 mph - N/A   Overcast
1:55 PM 20.7 °F 10.2 °F 13.1 °F 73% 30.00 in 10.0 mi North 9.2 mph - N/A   Overcast
2:14 PM 20.7 °F 11.0 °F 13.6 °F 74% 30.01 in 10.0 mi North 8.1 mph - N/A   Overcast
2:35 PM 20.7 °F 10.2 °F 14.0 °F 75% 29.98 in 10.0 mi NNE 9.2 mph - N/A   Overcast
2:55 PM 20.7 °F 11.0 °F 14.0 °F 75% 29.98 in 10.0 mi NNE 8.1 mph - N/A   Overcast
3:14 PM 20.7 °F 11.0 °F 14.0 °F 75% 29.97 in 10.0 mi NNE 8.1 mph - N/A   Overcast
3:35 PM 20.7 °F 10.2 °F 14.9 °F 78% 29.99 in 7.0 mi North 9.2 mph - N/A Snow Light Snow
3:55 PM 19.9 °F 10.1 °F 15.1 °F 81% 29.96 in 5.0 mi NNE 8.1 mph - N/A Snow Light Snow
4:14 PM 19.4 °F 7.2 °F 14.7 °F 82% 29.96 in 3.0 mi North 11.5 mph - N/A Snow Light Snow
4:35 PM 19.4 °F 7.9 °F 16.2 °F 87% 29.97 in 1.0 mi North 10.4 mph - N/A Snow Light Snow
4:54 PM 19.4 °F 9.5 °F 15.8 °F 86% 29.95 in 2.5 mi NNE 8.1 mph - N/A Snow Light Snow
5:15 PM 19.4 °F 9.5 °F 15.8 °F 86% 29.93 in 3.0 mi North 8.1 mph - N/A Snow Light Snow
5:35 PM 19.4 °F 8.6 °F 15.3 °F 84% 29.94 in 5.0 mi NNE 9.2 mph - N/A Snow Light Snow
5:54 PM 19.4 °F 9.5 °F 14.7 °F 82% 29.93 in 4.0 mi North 8.1 mph 16.1 mph N/A Snow Light Snow
6:15 PM 19.4 °F 9.5 °F 14.0 °F 80% 29.94 in 5.0 mi NNE 8.1 mph - N/A Snow Light Snow
6:35 PM 19.4 °F 9.5 °F 14.5 °F 81% 29.93 in 1.8 mi North 8.1 mph 16.1 mph N/A Snow Light Snow
6:54 PM 19.4 °F 8.6 °F 14.7 °F 82% 29.92 in 4.0 mi North 9.2 mph - N/A Snow Light Snow
7:15 PM 19.4 °F 10.4 °F 13.8 °F 79% 29.92 in 5.0 mi NNE 6.9 mph - N/A Snow Light Snow
7:35 PM 17.6 °F 7.3 °F 12.7 °F 81% 29.92 in 2.5 mi NE 8.1 mph - N/A Snow Light Snow
7:54 PM 17.1 °F 7.6 °F 12.9 °F 84% 29.90 in 3.0 mi NNE 6.9 mph - N/A Snow Light Snow
8:15 PM 16.7 °F 8.3 °F 13.1 °F 86% 29.90 in 2.5 mi NNE 5.8 mph - N/A Snow Light Snow
8:35 PM 16.7 °F 8.3 °F 13.1 °F 86% 29.90 in 2.0 mi NNE 5.8 mph - N/A Snow Light Snow
8:54 PM 16.7 °F 6.2 °F 13.1 °F 86% 29.89 in 4.0 mi NNE 8.1 mph - N/A Snow Light Snow
9:15 PM 16.7 °F 2.6 °F 12.2 °F 82% 29.89 in 4.0 mi NNE 13.8 mph 20.7 mph N/A Snow Light Snow
9:35 PM 16.7 °F 5.3 °F 11.8 °F 81% 29.87 in 5.0 mi NNE 9.2 mph 18.4 mph N/A Snow Light Snow
9:54 PM 16.7 °F 8.3 °F 12.2 °F 82% 29.87 in 3.0 mi NNE 5.8 mph 16.1 mph N/A Snow Light Snow
10:15 PM 16.7 °F 7.2 °F 12.6 °F 84% 29.86 in 2.5 mi NNE 6.9 mph - N/A Snow Light Snow
10:35 PM 16.7 °F 4.5 °F 12.2 °F 82% 29.86 in 3.0 mi NNE 10.4 mph 16.1 mph N/A Snow Light Snow
10:54 PM 15.6 °F 7.0 °F 11.8 °F 85% 29.86 in 1.8 mi NNE 5.8 mph - N/A Snow Light Snow
11:15 PM 14.4 °F 5.5 °F 11.1 °F 87% 29.84 in 1.0 mi NNE 5.8 mph - N/A Snow Snow
11:35 PM 14.4 °F 4.3 °F 11.3 °F 88% 29.84 in 1.5 mi North 6.9 mph - N/A Snow Light Snow
11:54 PM 14.4 °F 4.3 °F 11.3 °F 88% 29.83 in 0.8 mi NNE 6.9 mph - N/A Snow Snow